Hourly Data Report for September 03, 2019

TORONTO CITY
ONTARIO
Current Station Operator: ECCC - MSC

43°40'00.000" N
79°24'00.000" W
112.50 m
6158355
71508
XTO

Download Data

Hourly Data (September 2019)
Hourly Data Report for September 3, 2019
TIME
LST
Temp Definition
°C
Dew Point Definition
°C
Rel Hum Definition
%
Precip. Amount Definition
mm

Wind Dir Definition
10's deg

Wind Spd Definition
km/h
Visibility Definition
km
Stn Press Definition
kPa
Hmdx Definition


Wind Chill Definition


Weather Definition


00:00 17.3 14.4 83 0.0       100.39     LegendNANA
01:00 17.1 14.0 82 0.0       100.42     LegendNANA
02:00 16.7 14.1 84 0.0       100.39     LegendNANA
03:00 16.4 13.7 84 0.0       100.39     LegendNANA
04:00 16.1 13.3 84 0.0       100.41     LegendNANA
05:00 15.6 12.6 82 0.0       100.47     LegendNANA
06:00 15.6 12.8 83 0.0       100.46     LegendNANA
07:00 16.5 13.4 82 0.0       100.47     LegendNANA
08:00 17.4 13.8 79 0.0       100.44     LegendNANA
09:00 18.7 14.5 77 0.0       100.42     LegendNANA
10:00 19.3 14.7 75 0.0       100.38     LegendNANA
11:00 20.1 15.5 74 0.0       100.30     LegendNANA
12:00 20.9 14.5 67 0.0       100.24 25   LegendNANA
13:00 20.1 14.0 68 0.0       100.12     LegendNANA
14:00 20.5 14.9 70 0.0       100.00     LegendNANA
15:00 20.3 15.5 74 0.0       99.88 25   LegendNANA
16:00 20.3 16.6 80 0.0       99.83 25   LegendNANA
17:00 20.9 16.8 78 0.0       99.77 26   LegendNANA
18:00 21.1 17.2 78 0.0       99.73 27   LegendNANA
19:00 20.7 17.1 80 0.0       99.65 26   LegendNANA
20:00 21.4 17.4 78 0.0       99.49 27   LegendNANA
21:00 20.8 17.5 81 0.0       99.50 26   LegendNANA
22:00 20.4 18.3 88 1.7       99.39 27   LegendNANA
23:00 20.5 18.5 88 0.0       99.31 27   LegendNANA

Notes on Data Quality.

Legend

  • E = Estimated
  • M = Missing
  • NA = Not Available*
  • [empty] = Indicates an unobserved value
Date modified: